Weather History for Tomahawk, WI

Change the Weather History Date:

Thursday, February 7, 2013

  Actual Average (KRHI) Record (KRHI)
Temperature  
Mean Temperature 21 °F 14 °F  
Max Temperature 23 °F 24 °F 55 °F (1991)
Min Temperature 19 °F 5 °F -28 °F (1988)
Degree Days  
Heating Degree Days 44 51  
Month to date heating degree days 360  
Since 1 July heating degree days 5621  
Cooling Degree Days 0 0  
Month to date cooling degree days 0  
Year to date cooling degree days 0  
Moisture  
Dew Point 20 °F    
Average Humidity 92    
Maximum Humidity 100    
Minimum Humidity 80    
Precipitation  
Precipitation 0.01 in 0.03 in 0.63 in (1928)
Month to date precipitation 0.21  
Year to date precipitation 1.32  
Snow  
Snow 0.00 in - 6.00 in (1937)
Month to date snowfall  
Since 1 July snowfall  
Snow Depth -    
Sea Level Pressure  
Sea Level Pressure 30.06 in    
Wind  
Wind Speed 4 mph (NE)    
Max Wind Speed 12 mph    
Max Gust Speed 18 mph    
Visibility 6 miles    
Events Snow    
T = Trace of Precipitation, MM = Missing Value Source: NWS Daily Summary

Daily Weather History Graph

Daily Weather History Graph

Search for Another Location

Airport:

Trip Planner

Search our weather history database for the weather conditions in past years. The results will help you decide how hot, cold, wet, or windy it might be!

Date:

Astronomy

Feb. 07, 2013 Rise Set
Actual Time 7:12 AM CST 5:15 PM CST
Civil Twilight 6:41 AM CST 5:46 PM CST
Nautical Twilight 6:06 AM CST 6:21 PM CST
Astronomical Twilight 5:31 AM CST 6:55 PM CST
Moon 4:56 AM CST (2/7) 2:35 PM CST (2/7)
Length of Visible Light 11h 05m
Length of Day
10h 03m
Waning Crescent, 9% of the Moon is Illuminated
Feb 7
Waning Crescent
Feb 10
New
Feb 17
First Quarter
Feb 25
Full
Mar 4
Last Quarter

Hourly Weather History & Observations

Time (CST) Temp. Windchill Dew Point Humidity Pressure Visibility Wind Dir Wind Speed Gust Speed Precip Events Conditions
12:15 AM 21.2 °F - 19.4 °F 93% 30.03 in 2.0 mi Calm Calm - 0.01 in   Overcast
12:35 AM 21.2 °F - 19.4 °F 93% 30.03 in 2.0 mi Calm Calm - 0.01 in   Overcast
12:55 AM 21.2 °F 16.4 °F 19.4 °F 93% 30.03 in 2.0 mi East 3.5 mph - 0.01 in   Overcast
1:15 AM 21.2 °F 16.4 °F 19.4 °F 93% 30.03 in 2.0 mi East 3.5 mph - N/A   Overcast
1:35 AM 21.2 °F - 19.4 °F 93% 30.04 in 2.0 mi Calm Calm - N/A   Overcast
1:55 AM 21.2 °F 16.4 °F 21.2 °F 100% 30.04 in 2.5 mi ENE 3.5 mph - N/A   Overcast
2:15 AM 21.2 °F - 21.2 °F 100% 30.04 in 2.5 mi Calm Calm - N/A   Overcast
2:35 AM 23.0 °F - 21.2 °F 93% 30.04 in 2.0 mi Calm Calm - N/A   Overcast
2:55 AM 23.0 °F 18.4 °F 21.2 °F 93% 30.03 in 2.5 mi NE 3.5 mph - N/A   Overcast
3:15 AM 23.0 °F 18.4 °F 21.2 °F 93% 30.02 in 3.0 mi ENE 3.5 mph - N/A   Overcast
3:35 AM 23.0 °F 18.4 °F 21.2 °F 93% 30.02 in 3.0 mi ENE 3.5 mph - N/A   Overcast
3:55 AM 23.0 °F 15.8 °F 21.2 °F 93% 30.02 in 3.0 mi ENE 5.8 mph - N/A   Overcast
4:15 AM 21.2 °F 16.4 °F 21.2 °F 100% 30.02 in 3.0 mi NE 3.5 mph - N/A   Overcast
4:35 AM 21.2 °F 13.6 °F 19.4 °F 93% 30.03 in 4.0 mi NE 5.8 mph - N/A   Overcast
4:55 AM 21.2 °F 14.9 °F 19.4 °F 93% 30.03 in 4.0 mi NE 4.6 mph - N/A   Overcast
5:15 AM 21.2 °F 16.4 °F 19.4 °F 93% 30.02 in 4.0 mi NE 3.5 mph - N/A   Overcast
5:35 AM 21.2 °F 14.9 °F 19.4 °F 93% 30.02 in 4.0 mi NE 4.6 mph - N/A   Overcast
5:55 AM 21.2 °F 16.4 °F 19.4 °F 93% 30.02 in 4.0 mi NE 3.5 mph - N/A   Overcast
6:15 AM 21.2 °F 13.6 °F 19.4 °F 93% 30.02 in 4.0 mi NE 5.8 mph - N/A   Overcast
6:35 AM 21.2 °F 13.6 °F 19.4 °F 93% 30.02 in 5.0 mi NE 5.8 mph - N/A   Overcast
6:55 AM 21.2 °F 14.9 °F 19.4 °F 93% 30.02 in 5.0 mi NE 4.6 mph - N/A   Overcast
7:15 AM 21.2 °F 12.6 °F 19.4 °F 93% 30.03 in 7.0 mi NE 6.9 mph - N/A   Overcast
7:35 AM 21.2 °F 13.6 °F 19.4 °F 93% 30.03 in 5.0 mi NE 5.8 mph - N/A   Overcast
7:55 AM 21.2 °F 14.9 °F 19.4 °F 93% 30.04 in 7.0 mi NE 4.6 mph - N/A   Overcast
8:15 AM 21.2 °F 13.6 °F 19.4 °F 93% 30.05 in 10.0 mi NE 5.8 mph - N/A   Overcast
8:35 AM 21.2 °F 14.9 °F 19.4 °F 93% 30.05 in 10.0 mi NE 4.6 mph - N/A   Overcast
8:55 AM 21.2 °F 13.6 °F 19.4 °F 93% 30.05 in 10.0 mi ENE 5.8 mph - N/A   Overcast
9:15 AM 21.2 °F 13.6 °F 19.4 °F 93% 30.05 in 10.0 mi ENE 5.8 mph - N/A   Overcast
9:35 AM 21.2 °F 13.6 °F 19.4 °F 93% 30.05 in 10.0 mi ENE 5.8 mph - N/A   Overcast
9:55 AM 21.2 °F 14.9 °F 19.4 °F 93% 30.06 in 10.0 mi ENE 4.6 mph - N/A   Overcast
10:15 AM 21.2 °F 14.9 °F 19.4 °F 93% 30.07 in 10.0 mi NE 4.6 mph - N/A   Overcast
10:35 AM 21.2 °F 14.9 °F 19.4 °F 93% 30.08 in 7.0 mi NE 4.6 mph - N/A   Overcast
10:55 AM 21.2 °F 14.9 °F 19.4 °F 93% 30.07 in 4.0 mi NE 4.6 mph - N/A   Overcast
11:15 AM 21.2 °F 12.6 °F 19.4 °F 93% 30.07 in 3.0 mi NE 6.9 mph - N/A   Overcast
11:35 AM 23.0 °F 15.8 °F 21.2 °F 93% 30.06 in 2.5 mi NNE 5.8 mph - N/A   Overcast
11:55 AM 23.0 °F 17.0 °F 21.2 °F 93% 30.04 in 4.0 mi NE 4.6 mph - N/A   Overcast
12:15 PM 23.0 °F 14.7 °F 21.2 °F 93% 30.03 in 5.0 mi NE 6.9 mph - N/A   Overcast
12:35 PM 23.0 °F 17.0 °F 21.2 °F 93% 30.03 in 10.0 mi NNE 4.6 mph - N/A   Overcast
12:55 PM 23.0 °F 17.0 °F 21.2 °F 93% 30.03 in 10.0 mi NNE 4.6 mph - N/A   Overcast
1:15 PM 23.0 °F 14.7 °F 21.2 °F 93% 30.03 in 10.0 mi North 6.9 mph - N/A   Overcast
1:35 PM 23.0 °F 14.7 °F 21.2 °F 93% 30.02 in 10.0 mi NNE 6.9 mph - N/A   Overcast
1:55 PM 23.0 °F 13.9 °F 21.2 °F 93% 30.02 in 10.0 mi NNE 8.1 mph - N/A   Overcast
2:15 PM 23.0 °F 13.9 °F 21.2 °F 93% 30.02 in 10.0 mi NNE 8.1 mph - N/A   Overcast
2:35 PM 23.0 °F 14.7 °F 21.2 °F 93% 30.02 in 7.0 mi North 6.9 mph - N/A   Overcast
2:55 PM 23.0 °F 13.9 °F 21.2 °F 93% 30.02 in 5.0 mi NNE 8.1 mph - N/A   Overcast
3:15 PM 23.0 °F 13.9 °F 21.2 °F 93% 30.02 in 5.0 mi NNE 8.1 mph - N/A   Overcast
3:35 PM 23.0 °F 14.7 °F 21.2 °F 93% 30.02 in 4.0 mi NNE 6.9 mph - N/A   Overcast
3:55 PM 23.0 °F 17.0 °F 21.2 °F 93% 30.03 in 4.0 mi NNE 4.6 mph - N/A   Overcast
4:15 PM 23.0 °F 15.8 °F 21.2 °F 93% 30.04 in 4.0 mi NNE 5.8 mph - N/A   Overcast
4:35 PM 23.0 °F 13.1 °F 21.2 °F 93% 30.04 in 3.0 mi NNE 9.2 mph - N/A Snow Light Snow
4:55 PM 23.0 °F 13.9 °F 21.2 °F 93% 30.05 in 3.0 mi NNE 8.1 mph - N/A   Overcast
5:15 PM 23.0 °F 11.7 °F 21.2 °F 93% 30.05 in 5.0 mi NNE 11.5 mph - N/A   Overcast
5:35 PM 23.0 °F 12.4 °F 21.2 °F 93% 30.06 in 5.0 mi NE 10.4 mph - N/A   Overcast
5:55 PM 23.0 °F 13.1 °F 21.2 °F 93% 30.07 in 7.0 mi NNE 9.2 mph - N/A Snow Light Snow
6:15 PM 23.0 °F 15.8 °F 21.2 °F 93% 30.08 in 7.0 mi NNE 5.8 mph - N/A   Overcast
6:35 PM 23.0 °F 13.9 °F 19.4 °F 86% 30.09 in 10.0 mi NNE 8.1 mph - N/A   Overcast
6:55 PM 23.0 °F 12.4 °F 19.4 °F 86% 30.09 in 10.0 mi NNE 10.4 mph 17.3 mph N/A   Overcast
7:15 PM 21.2 °F 12.6 °F 19.4 °F 93% 30.09 in 10.0 mi NNE 6.9 mph 16.1 mph N/A Snow Light Snow
7:35 PM 21.2 °F 11.7 °F 19.4 °F 93% 30.10 in 10.0 mi NNE 8.1 mph - N/A Snow Light Snow
7:55 PM 21.2 °F 11.7 °F 19.4 °F 93% 30.10 in 10.0 mi NNE 8.1 mph - N/A   Overcast
8:15 PM 21.2 °F 11.7 °F 19.4 °F 93% 30.11 in 10.0 mi NNE 8.1 mph - N/A   Overcast
8:35 PM 21.2 °F 14.9 °F 19.4 °F 93% 30.12 in 10.0 mi NNE 4.6 mph - N/A   Overcast
8:55 PM 21.2 °F 10.9 °F 19.4 °F 93% 30.12 in 10.0 mi NE 9.2 mph 17.3 mph N/A   Overcast
9:15 PM 21.2 °F 11.7 °F 17.6 °F 86% 30.13 in 10.0 mi NNE 8.1 mph 16.1 mph N/A   Overcast
9:35 PM 21.2 °F 11.7 °F 17.6 °F 86% 30.14 in 10.0 mi NE 8.1 mph - N/A   Overcast
9:55 PM 21.2 °F 13.6 °F 17.6 °F 86% 30.15 in 10.0 mi NNE 5.8 mph - N/A   Overcast
10:15 PM 21.2 °F 11.7 °F 17.6 °F 86% 30.15 in 10.0 mi NE 8.1 mph 18.4 mph N/A   Overcast
10:35 PM 19.4 °F 12.8 °F 15.8 °F 86% 30.15 in 10.0 mi NNE 4.6 mph - N/A   Overcast
10:55 PM 19.4 °F 11.5 °F 15.8 °F 86% 30.16 in 10.0 mi NNE 5.8 mph 16.1 mph N/A   Overcast
11:15 PM 19.4 °F 11.5 °F 14.0 °F 80% 30.16 in 10.0 mi NNE 5.8 mph - N/A   Overcast
11:35 PM 19.4 °F 9.5 °F 14.0 °F 80% 30.17 in 10.0 mi North 8.1 mph - N/A Snow Light Snow
11:55 PM 19.4 °F 11.5 °F 14.0 °F 80% 30.18 in 7.0 mi North 5.8 mph - N/A Snow Light Snow